Location: Vancouver
(49.2500°N, 123.1333°W)
Time: 04:24:25
(UTC-07:00)

Daily predictions for brighter satellites

Satellite Brightness Start Highest point End
(mag) Time Altitude Azimuth Time Altitude Azimuth Time Altitude Azimuth
CENTAUR R/B 4.0 03:20:26 43° E 03:20:26 43° E 03:26:15 10° ESE
Cosmos 2333 Rocket 4.3 03:28:04 22° NE 03:28:04 22° NE 03:30:13 10° NE
Cosmos 2219 Rocket 4.2 03:34:47 23° NE 03:34:47 23° NE 03:36:56 10° NE
ADEOS II 4.3 03:38:12 10° NNE 03:39:46 19° NNE 03:39:46 19° NNE
ATLAS 2AS CENTAUR R/B 3.5 03:48:04 53° ESE 03:48:04 53° ESE 03:55:21 10° NE
Cosmos 2237 Rocket 4.0 03:49:23 27° E 03:49:23 27° E 03:53:14 10° NE
Cosmos 2322 Rocket 4.4 04:03:56 17° N 04:03:56 17° N 04:05:32 10° NNE
IDEFIX/ARIANE 42P 4.5 04:02:14 10° NE 04:06:32 25° E 04:07:35 23° ESE
Cosmos 2360 Rocket 4.0 04:10:18 22° N 04:10:18 22° N 04:12:33 10° NNE
COSMOS 2428 3.8 04:18:04 38° NNE 04:18:04 38° NNE 04:21:29 10° NNE
USA 267 3.9 04:12:35 10° ENE 04:18:48 44° SE 04:19:06 44° SE
COSMOS 2455 3.9 04:33:11 36° N 04:33:11 36° N 04:37:17 10° NNE
ARIANE 5 R/B 4.4 04:33:02 10° N 04:34:42 21° N 04:34:42 21° N
RESURS DK-1 4.3 04:43:20 26° ESE 04:43:20 26° ESE 04:46:39 10° NE
BREEZE-M R/B 3.8 04:43:59 75° E 04:43:59 75° E 04:52:03 10° E
SL-16 R/B 3.9 04:41:08 15° SSE 04:44:54 30° ESE 04:49:45 10° NE
USA 32 4.2 04:49:01 68° E 04:49:01 68° E 04:54:14 10° N
CZ-2C R/B 4.5 04:47:41 10° NE 04:52:05 27° E 04:56:23 10° SSE
USA 234 3.2 04:47:50 10° ESE 04:54:22 83° NNE 04:56:06 53° NW
Cosmos 2297 4.0 04:53:39 28° NNW 04:56:44 67° ENE 05:02:26 10° SE
NOSS 3-4 (A) 3.3 04:57:19 72° SSW 04:57:58 84° SE 05:04:27 10° NE
NOSS 3-4 (C) 3.3 04:57:23 71° SSW 04:58:04 83° SE 05:04:34 10° NE
ADEOS 3.9 04:53:59 10° NNE 04:59:12 63° ESE 05:00:51 42° SSE
ATLAS 3B R/B 2.9 05:03:01 51° SSW 05:03:01 51° SSW 05:08:33 10° SSE
Gblst 52 Del rocket 4.0 05:02:14 80° S 05:02:14 80° S 05:07:50 10° ESE
Cosmos 2074 Rocket 4.0 04:59:48 34° S 05:02:42 82° E 05:08:56 10° N
Cosmos 2228 3.8 04:59:01 10° N 05:03:11 49° ENE 05:07:17 10° SSE
ATLAS 5 CENTAUR R/B 4.3 05:03:16 23° NNW 05:06:26 43° NNE 05:23:15 10° ESE
CENTAUR R/B 3.2 05:07:44 50° W 05:08:42 52° WSW 05:17:01 10° SSE
Cosmos 2333 Rocket 3.0 05:10:05 36° NNW 05:10:05 36° NNW 05:14:33 10° NNE
Cosmos 1023 Rocket 4.5 05:09:41 61° S 05:10:31 77° ESE 05:15:40 10° NNE
MSX 4.3 05:06:43 10° NNE 05:12:25 60° ESE 05:18:04 10° S
Cosmos 2219 Rocket 3.1 05:16:31 33° NNW 05:16:31 33° NNW 05:20:50 10° NNE
PSLV R/B 3.7 05:12:32 10° NNE 05:16:10 64° NNE 05:16:10 64° NNE
SL-16 R/B 4.4 05:19:06 11° NNW 05:19:18 11° NNW 05:21:04 10° N
Cosmos 1726 Rocket 3.7 05:15:29 10° N 05:19:49 70° ENE 05:24:07 10° SSE
ADEOS II 3.8 05:18:34 10° N 05:20:42 19° NNW 05:20:42 19° NNW
Cosmos 1707 3.5 05:30:06 40° N 05:30:06 40° N 05:32:46 10° N
Cosmos 2237 Rocket 2.3 05:31:16 50° W 05:32:12 57° WNW 05:37:51 10° NNE
Meteor 1-31 Rocket 3.9 05:32:46 10° NNE 05:36:26 44° E 05:40:04 10° S
ATLAS 2AS CENTAUR R/B 3.3 05:35:32 36° W 05:38:46 55° NW 05:46:36 10° NE
Cosmos 2369 Rocket 3.1 05:37:39 10° NNW 05:43:06 48° NE 05:48:29 10° SE
Cosmos 676 Rocket 3.9 05:40:58 30° SSW 05:43:35 76° WNW 05:48:51 10° NNE
Cosmos 2344 4.4 05:36:48 10° NW 05:46:23 86° SW 05:59:48 10° SE
IDEFIX/ARIANE 42P 2.7 05:41:20 10° N 05:46:26 53° WNW 05:48:23 34° SW
NOSS 0 Rocket 4.4 05:46:42 35° W 05:48:21 42° NW 05:54:16 10° NNE
Cosmos 407 Rocket 3.9 05:48:28 39° WNW 05:49:02 40° WNW 05:53:53 10° NNE
Cosmos 2058 Rocket 3.0 05:46:11 10° N 05:50:38 86° W 05:55:05 10° S
Cosmos 1980 4.2 05:49:29 36° W 05:50:44 41° NW 05:56:05 10° NNE
Cosmos 1190 Rocket 4.4 05:51:31 37° W 05:52:40 43° WNW 05:57:42 10° NNE
Cosmos 2360 Rocket 4.2 05:52:05 12° NW 05:52:55 12° NNW 05:55:15 10° N
ERBS 3.7 05:53:04 26° NNW 05:53:05 26° NNW 05:56:02 10° NE
Meteor 2-5 Rocket 4.4 05:49:01 10° S 05:54:45 61° E 06:00:36 10° NNE
H-2A R/B 2.5 05:51:45 10° N 05:55:54 62° WNW 05:58:39 21° SSW
Okean O Rocket 4.2 05:52:53 10° NE 05:56:21 22° E 05:59:47 10° SE
COSMOS 2441 4.3 05:51:34 10° N 05:56:27 66° WNW 06:01:16 10° SSW
Cosmos 44 Rocket 3.5 05:56:05 39° W 05:56:48 41° WSW 06:01:12 10° S
CZ-4B R/B 2.9 05:54:40 10° NNE 05:58:39 74° ESE 06:02:24 10° S
Cosmos 1943 Rocket 2.5 05:54:23 10° NNW 06:00:05 70° ENE 06:05:45 10° SE
COSMOS 2428 4.1 06:00:06 20° NW 06:00:55 21° NW 06:05:08 10° N
USA 267 3.2 05:55:34 10° NE 06:02:06 76° NNW 06:06:27 23° WSW
BREEZE-M DEB (TANK) 1.8 06:03:22 38° W 06:04:35 84° N 06:06:55 10° E
SKYMED 2 4.0 06:02:34 10° SSE 06:06:52 65° ENE 06:11:12 10° N
Meteor PRIRODA 4.0 06:04:22 10° NNE 06:08:07 66° ESE 06:11:49 10° S
Cosmos 389 Rocket 4.5 06:12:26 15° NNW 06:12:26 15° NNW 06:13:25 10° NNW
Cosmos 1892 Rocket 3.6 06:06:54 10° SSW 06:11:14 57° WNW 06:15:34 10° N
Cosmos 2154 Rocket 4.1 06:06:20 10° SSW 06:12:22 54° WNW 06:18:29 10° N
Meteor 1-4 Rocket 3.7 06:16:07 23° NW 06:16:07 23° NW 06:18:17 10° NNW
Cosmos 1140 Rocket 4.2 06:17:51 23° WSW 06:20:12 33° NW 06:24:54 10° N
RESURS DK-1 2.9 06:19:17 25° WSW 06:21:05 39° NW 06:25:01 10° NNE
Cosmos 1850 Rocket 3.9 06:17:25 10° SSW 06:22:36 87° WNW 06:27:49 10° NNE
USA 116 3.9 06:20:52 10° SSE 06:24:19 59° ENE 06:27:29 10° N
Cosmos 1727 Rocket 4.5 06:18:56 10° N 06:25:10 66° ENE 06:31:24 10° SSE
Nadezhda 3 Rocket 4.5 06:19:26 10° NNW 06:25:12 37° W 06:30:55 10° SSW
KORONAS-FOTON 3.6 06:24:00 10° SSW 06:27:46 72° WNW 06:31:35 10° N
SL-16 R/B 2.4 06:23:13 10° SW 06:28:45 53° NW 06:34:20 10° NNE
Cosmos 1603 4.4 06:23:19 10° S 06:28:48 56° ESE 06:34:21 10° NE
Cosmos 1726 2.9 06:26:08 10° NNW 06:29:21 29° W 06:32:35 10° SSW
Meteor 2-10 4.5 06:24:53 10° NNW 06:29:43 39° W 06:34:42 10° SSW
SL-14 R/B 4.3 06:26:12 10° S 06:29:58 49° E 06:33:45 10° NNE
PAYLOAD A 4.3 06:25:30 10° N 06:30:03 40° WNW 06:34:45 10° SW
Cosmos 2263 4.4 06:24:37 10° NNW 06:30:21 76° ENE 06:36:05 10° SSE
CZ-2C R/B 2.7 06:25:32 10° N 06:30:32 49° WNW 06:35:27 10° SW
Helios 1A Rocket 3.9 06:28:24 10° NNE 06:32:30 53° E 06:36:33 10° S
Cosmos 468 Rocket 4.2 06:28:20 10° NNW 06:33:17 48° WSW 06:38:12 10° S
USA 234 3.8 06:31:48 10° SSE 06:37:48 38° SW 06:43:27 12° WNW
GP-B 3.5 06:34:22 10° SSW 06:38:33 40° W 06:42:46 10° NNW
Cosmos 1812 Rocket 3.6 06:35:27 10° N 06:39:58 89° WSW 06:44:25 10° S
Cosmos 2228 4.3 06:37:29 10° NW 06:40:20 18° W 06:43:10 10° SW
Meteor 1-24 Rocket 3.8 06:34:39 10° SSW 06:40:30 84° WNW 06:46:33 10° N
COBE Rocket 4.1 06:37:44 10° S 06:42:43 55° W 06:47:50 10° NNW
Cosmos 1437 Rocket 3.4 06:39:42 10° SW 06:43:06 31° WNW 06:46:33 10° N
Cosmos 1626 Rocket 3.4 06:39:50 10° SSW 06:44:08 72° W 06:48:30 10° N
Cosmos 2341 Rocket 4.1 06:38:29 10° SSW 06:44:32 52° WNW 06:50:36 10° N
Cosmos 1908 4.0 06:44:08 10° NNW 06:47:29 29° W 06:50:49 10° SSW
NOSS 3-4 (A) 4.4 06:44:47 13° W 06:49:35 34° NNW 06:55:35 10° NE
NOSS 3-4 (C) 4.4 06:44:51 13° W 06:49:41 34° NNW 06:55:42 10° NE
Cosmos 841 Rocket 3.5 06:44:38 10° NNW 06:49:55 74° WSW 06:55:09 10° SSE
ATLAS 3B R/B 4.3 06:50:23 11° W 06:51:12 11° WSW 06:53:08 10° WSW
Cosmos 1959 Rocket 4.4 06:48:22 10° SSW 06:54:29 71° WNW 07:00:42 10° N
COSMO-SKYMED 1 2.9 06:50:53 10° S 06:55:00 42° W 06:59:10 10° NNW
Cosmos 1570 Rocket 4.3 06:50:08 10° NNW 06:55:13 45° WSW 07:00:15 10° S
Cosmos 2333 Rocket 4.1 06:52:54 10° NW 06:55:14 12° NNW 06:57:35 10° N
PSLV R/B 4.0 06:52:48 10° N 06:56:19 41° WNW 06:59:47 10° SW
SJ-12 3.9 06:52:35 10° N 06:56:41 69° WNW 07:00:46 10° SSW
SL-8 Rocket 4.1 06:51:54 10° SSW 06:57:56 56° WNW 07:04:01 10° N
Cosmos 1943 3.6 06:53:41 10° SSW 06:59:21 71° ESE 07:05:02 10° NNE
ALOS 2.3 06:55:55 10° NNE 07:00:38 88° WNW 07:05:19 10° SSW
Cosmos 1455 4.4 06:57:33 10° N 07:00:51 28° ENE 07:04:09 10° SE
Cosmos 2219 Rocket 4.2 06:59:52 10° NW 07:01:30 11° NNW 07:03:08 10° N
Cosmos 540 Rocket 3.4 06:58:09 10° NNW 07:03:19 70° WSW 07:08:25 10° SSE
Cosmos 1674 3.7 07:02:59 10° SW 07:06:03 24° WNW 07:09:08 10° NNW
Cosmos 1763 Rocket 4.2 07:03:40 10° NW 07:08:12 32° WSW 07:12:39 10° SSW
Cosmos 2366 rocket 4.1 07:02:45 10° SSW 07:09:01 59° WNW 07:15:19 10° N
Meteor 1-31 Rocket 4.2 07:07:54 10° NNW 07:10:34 19° WNW 07:13:15 10° WSW
Cosmos-2242 3.3 07:07:35 10° N 07:11:52 75° E 07:16:07 10° SSE
